[[{"header":{"parameterUnit":"m.s-1","parameterCategory":1,"la1":30.2991,"la2":30.254,"lo1":-89.0895,"lo2":-89.0444,"dy":0.0017,"dx":0.0017,"nx":28,"ny":28,"refTime":"2025-06-04T03:00:00:Z","depth":0,"parameterNumber":2,"parameterNumberName":"U-component_of_WINDS"},"data":[0,0,0,0,0,0,0,0,0,0,0,0,0,0,0,0,0,0,0,0,0,0,0,0,0,0,0,0,0,0,0,0,0,0,0,0,0,0,0,0,0,0,0,0,0,0,0,0,0,0,0,0,0,0,0,0,0,0,-5.5144,-5.5146,0,-5.5338,-5.534,-5.5342,-5.539,-5.5389,-5.5388,-5.5387,-5.5579,-5.5585,-5.5592,0,0,0,0,0,0,0,0,0,0,0,0,0,-5.481,-5.4816,-5.5144,-5.5147,-5.5149,-5.5338,-5.534,-5.5343,-5.539,-5.5389,-5.5387,-5.5386,-5.5577,-5.5585,-5.5592,0,0,0,0,0,0,0,0,0,0,0,0,0,-5.4974,-5.4818,-5.5144,-5.5196,-5.5202,-5.5337,-5.534,-5.5344,-5.5391,-5.5389,-5.5387,-5.5385,-5.5575,-5.5584,-5.5593,-5.5689,0,0,-5.5622,-5.5626,0,0,0,0,0,0,0,0,-5.4965,-5.4986,-5.5186,-5.5192,-5.52,-5.5338,-5.5293,-5.5459,-5.5391,-5.5319,-5.5387,-5.5384,-5.55,-5.5516,-5.5556,-5.5698,-5.5706,-5.5623,-5.5629,-5.5633,-5.5635,0,0,0,0,0,0,0,-5.4953,-5.4978,-5.5221,-5.5188,-5.5197,-5.5207,-5.5229,-5.5325,-5.5417,-5.5325,-5.5329,-5.5352,-5.5504,-5.5547,-5.5561,-5.5709,-5.5623,-5.5631,-5.5637,-5.5641,-5.5937,-5.5939,0,0,0,0,0,0,-5.4934,-5.4969,-5.5215,-5.5227,-5.5076,-5.5215,-5.5239,-5.5296,-5.5417,-5.5433,-5.5353,-5.5353,-5.5532,-5.555,-5.5568,-5.5686,-5.5633,-5.5642,-5.5647,-5.5935,-5.5937,-5.594,0,0,0,0,0,0,-5.4926,-5.4955,-5.5207,-5.5099,-5.5132,-5.5223,-5.5286,-5.53,-5.5343,-5.5438,-5.5454,-5.538,-5.5531,-5.5554,-5.5658,-5.5693,-5.5646,-5.5654,-5.5932,-5.5936,-5.5939,-5.5923,0,0,0,0,0,0,-5.4917,-5.4952,-5.4991,-5.5099,-5.5137,-5.5295,-5.5288,-5.5306,-5.536,-5.5362,-5.5468,-5.5483,-5.5531,-5.5644,-5.5668,-5.5705,-5.5662,-5.5929,-5.5934,-5.5938,-5.5921,-5.5925,-5.5929,0,0,0,0,0,-5.4905,-5.4978,-5.4992,-5.5022,-5.5187,-5.5297,-5.5319,-5.5374,-5.5363,-5.5401,-5.5462,-5.548,-5.5686,-5.5654,-5.5681,-5.5722,-5.5927,-5.5932,-5.5937,-5.5919,-5.5925,-5.5929,0,0,0,0,0,0,-5.4869,-5.4993,-5.501,-5.5122,-5.5199,-5.5305,-5.5355,-5.5379,-5.5459,-5.5457,-5.5521,-5.5544,-5.5643,-5.5694,-5.5656,-5.582,-5.5806,-5.5817,-5.5783,-5.5789,-5.5794,-5.5778,-5.567,0,0,0,0,0,-5.4874,-5.4955,-5.5059,-5.5146,-5.5185,-5.5263,-5.5313,-5.5349,-5.5431,-5.5463,-5.5532,-5.5609,-5.5691,-5.5743,-5.5824,-5.5929,-5.5952,-5.5971,-5.5975,-5.5978,-5.5985,-5.6043,-5.6052,-5.5956,-5.5956,-5.5956,0,0,-5.4885,-5.4963,-5.501,-5.5141,-5.5205,-5.5285,-5.529,-5.5375,-5.5434,-5.5476,-5.5578,-5.5631,-5.5721,-5.5825,-5.5875,-5.587,-5.6018,-5.5985,-5.5986,-5.5992,-5.6049,-5.6058,-5.6066,-5.596,-5.5959,-5.5958,0,0,-5.4946,-5.5014,-5.5094,-5.5159,-5.5256,-5.5309,-5.5328,-5.5431,-5.5468,-5.5573,-5.5605,-5.5676,-5.5817,-5.5879,-5.5929,-5.6014,-5.6033,-5.6039,-5.606,-5.6115,-5.6123,-5.613,-5.6157,-5.6167,-5.6047,-5.6047,-5.6047,0,-5.4946,-5.507,-5.5131,-5.5215,-5.5271,-5.5315,-5.5394,-5.5454,-5.5572,-5.5608,-5.5603,-5.578,-5.5844,-5.5962,-5.5983,-5.6023,-5.6045,-5.6026,-5.6117,-5.6125,-5.6132,-5.6159,-5.617,-5.6047,-5.6047,-5.6047,-5.6047,0,-5.5065,-5.5151,-5.5203,-5.5318,-5.538,-5.5461,-5.5533,-5.5588,-5.5619,-5.5671,-5.5775,-5.5854,-5.5951,-5.5983,-5.6013,-5.6106,-5.6099,-5.6105,-5.6092,-5.614,-5.6166,-5.6177,-5.6046,-5.6046,-5.6046,-5.6047,0,0,-5.5106,-5.5255,-5.5273,-5.5325,-5.5437,-5.5503,-5.5586,-5.5682,-5.5727,-5.5808,-5.5877,-5.5995,-5.6001,-5.6058,-5.6096,-5.6145,-5.6204,-5.6144,-5.6147,-5.615,-5.6308,-5.6301,-5.6312,-5.6219,-5.6221,-5.6223,-5.6299,0,-5.5178,-5.5329,-5.5387,-5.5509,-5.5587,-5.5631,-5.5702,-5.5777,-5.5828,-5.5901,-5.5957,-5.6039,-5.6042,-5.6076,-5.6127,-5.6186,-5.6236,-5.6182,-5.6281,-5.6284,-5.6254,-5.6327,-5.632,-5.6388,-5.6311,-5.6312,-5.6314,0,-5.5282,-5.5365,-5.5496,-5.5597,-5.5632,-5.5696,-5.5788,-5.5858,-5.5944,-5.5977,-5.6042,-5.6077,-5.6163,-5.6147,-5.6265,-5.6227,-5.6272,-5.6307,-5.6311,-5.632,-5.6299,-5.6334,-5.6412,-5.642,-5.6331,-5.633,-5.6329,0,-5.5295,-5.544,-5.5537,-5.558,-5.5702,-5.5745,-5.5797,-5.5881,-5.5936,-5.6016,-5.6052,-5.6141,-5.6189,-5.6256,-5.6314,-5.6298,-5.6426,-5.6416,-5.6454,-5.6453,-5.6477,-5.6474,-5.6559,-5.651,-5.651,-5.651,-5.651,0,-5.5368,-5.5445,-5.5544,-5.5603,-5.569,-5.5756,-5.584,-5.5895,-5.5969,-5.6038,-5.6081,-5.6144,-5.6219,-5.6291,-5.6337,-5.6426,-5.6448,-5.6476,-5.6487,-5.6471,-5.6467,-5.6498,-5.6494,-5.6513,-5.6512,-5.6512,-5.6511,0,-5.5397,-5.5466,-5.5574,-5.5681,-5.5709,-5.5768,-5.5859,-5.5917,-5.5971,-5.6057,-5.6081,-5.6165,-5.6252,-5.6318,-5.6431,-5.6462,-5.6556,-5.6569,-5.6527,-5.6532,-5.6566,-5.6561,-5.6672,-5.6689,-5.6631,-5.6631,-5.6632,0,-5.5437,-5.5498,-5.5611,-5.5662,-5.5714,-5.5794,-5.585,-5.5917,-5.5973,-5.6075,-5.612,-5.6211,-5.6287,-5.6424,-5.6494,-5.658,-5.6593,-5.6626,-5.6606,-5.6588,-5.6591,-5.6585,-5.659,-5.6628,-5.6628,-5.6628,-5.6629,0,-5.55,-5.5532,-5.5612,-5.5704,-5.577,-5.5845,-5.5921,-5.5959,-5.6039,-5.61,-5.6191,-5.625,-5.6366,-5.6454,-5.6548,-5.66,-5.6626,-5.6635,-5.6648,-5.663,-5.6603,-5.6616,-5.6531,-5.6631,-5.6631,-5.6631,-5.6631,-5.6631,-5.5534,-5.559,-5.5678,-5.5766,-5.583,-5.59,-5.596,-5.6022,-5.6099,-5.62,-5.6234,-5.6327,-5.6411,-5.6539,-5.6592,-5.6665,-5.6665,-5.6684,-5.6688,-5.6691,-5.6689,-5.6594,-5.6682,-5.6682,-5.6682,-5.6682,-5.6682,0,-5.5598,-5.5657,-5.5737,-5.5843,-5.5911,-5.5934,-5.6019,-5.6073,-5.6155,-5.6232,-5.6306,-5.641,-5.6496,-5.6574,-5.6663,-5.6706,-5.672,-5.6727,-5.6723,-5.6734,-5.6685,-5.6664,-5.6714,-5.6714,-5.6714,-5.6714,-5.6714,-5.6714,-5.5638,-5.5733,-5.5775,-5.5901,-5.596,-5.6053,-5.6099,-5.6163,-5.6225,-5.6339,-5.6412,-5.6462,-5.6539,-5.6634,-5.6714,-5.6734,-5.6764,-5.6767,-5.6789,-5.6742,-5.6738,-5.6734,-5.6714,-5.6773,-5.6773,-5.6832,-5.6833,-5.6833]},{"header":{"parameterUnit":"m.s-1","parameterCategory":1,"la1":30.2991,"la2":30.254,"lo1":-89.0895,"lo2":-89.0444,"dy":0.0017,"dx":0.0017,"nx":28,"ny":28,"refTime":"2025-06-04T03:00:00:Z","depth":0,"parameterNumber":3,"parameterNumberName":"V-component_of_WINDS"},"data":[0,0,0,0,0,0,0,0,0,0,0,0,0,0,0,0,0,0,0,0,0,0,0,0,0,0,0,0,0,0,0,0,0,0,0,0,0,0,0,0,0,0,0,0,0,0,0,0,0,0,0,0,0,0,0,0,0,0,1.1047,1.1049,0,1.126,1.1263,1.1265,1.1371,1.1371,1.1371,1.1371,1.1591,1.1597,1.1603,0,0,0,0,0,0,0,0,0,0,0,0,0,1.0735,1.074,1.1047,1.1049,1.1052,1.126,1.1263,1.1266,1.1371,1.1371,1.1371,1.1371,1.159,1.1596,1.1603,0,0,0,0,0,0,0,0,0,0,0,0,0,1.0901,1.0742,1.1046,1.113,1.1139,1.1259,1.1263,1.1266,1.1371,1.1371,1.1371,1.1371,1.1587,1.1596,1.1604,1.1658,0,0,1.1631,1.1635,0,0,0,0,0,0,0,0,1.0892,1.0913,1.1115,1.1124,1.1135,1.1289,1.1234,1.1398,1.1371,1.1283,1.1371,1.1371,1.1491,1.1508,1.1548,1.1669,1.1678,1.1632,1.1637,1.1641,1.1644,0,0,0,0,0,0,0,1.088,1.0904,1.1131,1.1117,1.113,1.1158,1.1181,1.1265,1.1384,1.1291,1.1299,1.1323,1.1497,1.1539,1.1554,1.1681,1.1632,1.164,1.1645,1.1649,1.1861,1.1862,0,0,0,0,0,0,1.0855,1.0894,1.1125,1.1138,1.1011,1.1163,1.119,1.124,1.1384,1.1406,1.1322,1.1327,1.1524,1.1543,1.1562,1.1637,1.1641,1.1649,1.1654,1.1861,1.1861,1.1862,0,0,0,0,0,0,1.0847,1.0874,1.1116,1.1018,1.1051,1.1169,1.1224,1.1244,1.1286,1.1408,1.143,1.1343,1.1525,1.1549,1.1634,1.1646,1.1653,1.1661,1.186,1.1861,1.1862,1.1785,0,0,0,0,0,0,1.0838,1.0871,1.0891,1.1018,1.1056,1.1183,1.1224,1.1248,1.1301,1.1309,1.1433,1.1454,1.1527,1.1621,1.1643,1.1658,1.1668,1.186,1.1861,1.1861,1.1787,1.1783,1.1779,0,0,0,0,0,1.0827,1.0861,1.0892,1.0919,1.1084,1.1183,1.1205,1.1288,1.1301,1.1324,1.1402,1.145,1.1641,1.1628,1.1655,1.1672,1.186,1.186,1.1861,1.1789,1.1783,1.1779,0,0,0,0,0,0,1.0733,1.0879,1.0915,1.0991,1.1074,1.1201,1.1232,1.1279,1.1361,1.1364,1.1464,1.1491,1.1567,1.1629,1.1612,1.1734,1.1755,1.1761,1.1691,1.1687,1.1683,1.1667,1.1676,0,0,0,0,0,1.0721,1.0789,1.0914,1.0969,1.1009,1.1113,1.1159,1.1216,1.1306,1.1342,1.1427,1.1513,1.1593,1.1644,1.1723,1.1796,1.1827,1.1822,1.1818,1.1814,1.1818,1.1864,1.1864,1.1865,1.1865,1.1865,0,0,1.0698,1.0786,1.0823,1.0952,1.1023,1.1093,1.1142,1.1213,1.1266,1.1353,1.1439,1.1504,1.1607,1.1687,1.1726,1.174,1.1825,1.1815,1.1811,1.1818,1.1865,1.1865,1.1865,1.1865,1.1865,1.1865,0,0,1.0691,1.0763,1.0818,1.0889,1.0996,1.1065,1.1078,1.1199,1.1246,1.1333,1.1401,1.1467,1.1601,1.1673,1.1727,1.175,1.1798,1.1773,1.1753,1.1797,1.1797,1.1797,1.1807,1.1809,1.1777,1.1777,1.1777,0,1.0648,1.0754,1.0841,1.0909,1.0965,1.1047,1.1105,1.117,1.1297,1.1335,1.1349,1.1521,1.1597,1.1696,1.1701,1.1742,1.1762,1.1759,1.1789,1.1791,1.1793,1.1803,1.1806,1.1773,1.1774,1.1774,1.1774,0,1.0698,1.077,1.0802,1.0924,1.0984,1.1046,1.1144,1.1194,1.1246,1.1314,1.1404,1.1498,1.1599,1.1627,1.1678,1.1734,1.174,1.177,1.1794,1.1787,1.1799,1.1804,1.1768,1.177,1.1771,1.1771,0,0,1.0636,1.0806,1.0816,1.0873,1.0998,1.1057,1.1125,1.1224,1.1266,1.1352,1.1412,1.1526,1.1556,1.1617,1.1677,1.1715,1.173,1.1742,1.1746,1.1737,1.18,1.1777,1.178,1.1763,1.1764,1.1765,1.1792,0,1.0647,1.077,1.0851,1.0943,1.1013,1.1094,1.1153,1.1237,1.1303,1.1374,1.1448,1.1527,1.156,1.1598,1.1639,1.1719,1.1744,1.1718,1.1821,1.1824,1.1793,1.1786,1.1761,1.1782,1.1797,1.1798,1.1798,0,1.0676,1.076,1.0858,1.0978,1.1011,1.1062,1.1161,1.1226,1.1325,1.1371,1.144,1.1502,1.1579,1.1596,1.1704,1.1685,1.1732,1.1778,1.1781,1.1794,1.1811,1.18,1.1791,1.1794,1.1806,1.1806,1.1805,0,1.0623,1.0761,1.0838,1.0884,1.1025,1.106,1.1121,1.1219,1.1274,1.1361,1.1399,1.1493,1.1545,1.1618,1.1705,1.1709,1.1805,1.1829,1.1847,1.1845,1.1864,1.1861,1.1863,1.1893,1.1893,1.1892,1.1892,0,1.0628,1.0685,1.0816,1.0864,1.0932,1.1025,1.109,1.1158,1.1245,1.1309,1.1385,1.1443,1.1554,1.1627,1.1695,1.1776,1.1798,1.1839,1.1857,1.1833,1.1828,1.1865,1.1866,1.1893,1.1893,1.1893,1.1893,0,1.0579,1.0669,1.0759,1.0886,1.092,1.0964,1.1074,1.1124,1.1195,1.1275,1.1299,1.1412,1.1502,1.1595,1.1717,1.1764,1.1842,1.1866,1.1808,1.1818,1.1832,1.183,1.1858,1.1868,1.1889,1.1889,1.1888,0,1.0576,1.0622,1.0754,1.0802,1.0861,1.0937,1.0994,1.1089,1.1145,1.1262,1.1299,1.1395,1.1476,1.1616,1.171,1.1804,1.1832,1.1835,1.1846,1.1822,1.1834,1.183,1.1836,1.1831,1.1831,1.183,1.1829,0,1.0562,1.0605,1.0683,1.0778,1.0844,1.0923,1.1006,1.1041,1.1153,1.1213,1.1306,1.1369,1.1494,1.1588,1.1694,1.1759,1.1814,1.1825,1.1835,1.1811,1.1776,1.1797,1.1799,1.1824,1.1825,1.1825,1.1825,1.1826,1.0538,1.0583,1.0683,1.0769,1.0841,1.0917,1.0971,1.105,1.1128,1.1237,1.1289,1.1382,1.1483,1.1631,1.1694,1.177,1.1786,1.1799,1.1803,1.1805,1.1799,1.1764,1.179,1.179,1.179,1.179,1.1791,0,1.0528,1.0597,1.0675,1.0788,1.0856,1.0901,1.0995,1.105,1.113,1.1219,1.1298,1.1405,1.1498,1.16,1.1699,1.1741,1.1768,1.1764,1.1762,1.1777,1.1779,1.1761,1.174,1.174,1.174,1.174,1.174,1.174,1.0531,1.0611,1.0666,1.0784,1.0854,1.0944,1.0995,1.1066,1.1138,1.1254,1.1331,1.1397,1.1492,1.1599,1.1687,1.1715,1.1749,1.1737,1.1772,1.1772,1.1776,1.178,1.1764,1.1743,1.1743,1.1764,1.1764,1.1764]}]]